Weather History for Ft Riley, KS

Change the Weather History Date:

Friday, September 13, 2013

  Actual Average (KMHK) Record (KMHK)
Temperature  
Mean Temperature 66 °F 69 °F  
Max Temperature 77 °F 82 °F 100 °F (2000)
Min Temperature 55 °F 56 °F 35 °F (2014)
Degree Days  
Heating Degree Days 0 1  
Month to date heating degree days 8  
Since 1 July heating degree days 11  
Cooling Degree Days 0 5  
Month to date cooling degree days 93  
Year to date cooling degree days 1276  
Growing Degree Days 16 (Base 50)    
Moisture  
Dew Point 53 °F    
Average Humidity 66    
Maximum Humidity 100    
Minimum Humidity 38    
Precipitation  
Precipitation 0.00 in 0.10 in 0.33 in (2008)
Month to date precipitation 1.66  
Year to date precipitation 26.20  
Sea Level Pressure  
Sea Level Pressure 30.12 in    
Wind  
Wind Speed 6 mph (ENE)    
Max Wind Speed 12 mph    
Max Gust Speed 20 mph    
Visibility 10 miles    
Events      
T = Trace of Precipitation, MM = Missing Value Source: NWS Daily Summary

Daily Weather History Graph

Daily Weather History Graph

Search for Another Location

Airport:

Trip Planner

Search our weather history database for the weather conditions in past years. The results will help you decide how hot, cold, wet, or windy it might be!

Date:

Astronomy

Sep. 13, 2013 Rise Set
Actual Time 7:06 AM CDT 7:38 PM CDT
Civil Twilight 6:39 AM CDT 8:04 PM CDT
Nautical Twilight 6:08 AM CDT 8:36 PM CDT
Astronomical Twilight 5:35 AM CDT 9:08 PM CDT
Moon 3:27 PM CDT (9/13) 12:39 AM CDT (9/13)
Length of Visible Light 13h 24m
Length of Day
12h 31m
First Quarter, 61% of the Moon is Illuminated
Sep 13
First Quarter
Sep 19
Full
Sep 26
Last Quarter
Oct 4
New
Oct 11
First Quarter

Hourly Weather History & Observations

Time (CDT) Temp. Dew Point Humidity Pressure Visibility Wind Dir Wind Speed Gust Speed Precip Events Conditions
12:58 AM 65.8 °F 51.8 °F 60% 30.14 in 10.0 mi NE 4.6 mph - N/A   Clear
1:58 AM 63.5 °F 52.2 °F 67% 30.14 in 10.0 mi ENE 8.1 mph - N/A   Clear
2:58 AM 61.9 °F 53.2 °F 73% 30.14 in 10.0 mi NE 5.8 mph - N/A   Clear
3:58 AM 61.2 °F 54.5 °F 79% 30.15 in 10.0 mi NE 5.8 mph - N/A   Clear
4:58 AM 61.9 °F 53.1 °F 73% 30.16 in 10.0 mi Calm Calm - N/A   Clear
5:58 AM 57.6 °F 57.2 °F 99% 30.17 in 10.0 mi NE 4.6 mph - N/A   Clear
6:58 AM 58.6 °F 56.8 °F 94% 30.17 in 10.0 mi ENE 4.6 mph - N/A   Overcast
7:58 AM 57.7 °F 57.7 °F 100% 30.19 in 10.0 mi NNE 2.3 mph - N/A   Clear
8:58 AM 61.0 °F 56.8 °F 86% 30.18 in 10.0 mi NE 4.6 mph - N/A   Clear
9:58 AM 64.4 °F 55.8 °F 73% 30.19 in 10.0 mi NNE 4.6 mph - N/A   Clear
10:58 AM 70.9 °F 51.8 °F 51% 30.18 in 10.0 mi ESE 10.4 mph - N/A   Clear
11:58 AM 73.8 °F 49.6 °F 43% 30.17 in 10.0 mi East 10.4 mph - N/A   Partly Cloudy
12:58 PM 74.7 °F 48.4 °F 39% 30.15 in 10.0 mi ENE 11.5 mph 19.6 mph N/A   Partly Cloudy
1:58 PM 75.2 °F 49.6 °F 41% 30.13 in 10.0 mi East 8.1 mph - N/A   Partly Cloudy
2:58 PM 73.6 °F 49.5 °F 43% 30.11 in 10.0 mi ENE 9.2 mph - N/A   Partly Cloudy
3:58 PM 76.3 °F 49.8 °F 39% 30.08 in 10.0 mi Variable 4.6 mph - N/A   Partly Cloudy
4:58 PM 76.5 °F 51.4 °F 42% 30.07 in 10.0 mi NE 10.4 mph - N/A   Clear
5:58 PM 75.7 °F 48.4 °F 38% 30.06 in 10.0 mi ENE 9.2 mph - N/A   Clear
6:58 PM 70.7 °F 51.8 °F 51% 30.06 in 10.0 mi NE 8.1 mph - N/A   Clear
7:58 PM 64.2 °F 53.4 °F 68% 30.06 in 10.0 mi East 4.6 mph - N/A   Clear
8:58 PM 64.4 °F 52.2 °F 64% 30.07 in 10.0 mi ENE 6.9 mph - N/A   Clear
9:58 PM 60.1 °F 54.7 °F 82% 30.08 in 10.0 mi NNE 3.5 mph - N/A   Clear
10:58 PM 55.9 °F 55.4 °F 98% 30.08 in 10.0 mi East 4.6 mph - N/A   Scattered Clouds
11:58 PM 59.7 °F 53.1 °F 79% 30.06 in 10.0 mi East 4.6 mph - N/A   Overcast